[[{"header":{"parameterUnit":"m.s-1","parameterCategory":1,"la1":30.2991,"la2":30.254,"lo1":-89.0895,"lo2":-89.0444,"dy":0.0017,"dx":0.0017,"nx":28,"ny":28,"refTime":"2023-09-28T21:00:00:Z","depth":0,"parameterNumber":2,"parameterNumberName":"U-component_of_WINDS"},"data":[0,0,0,0,0,0,0,0,0,0,0,0,0,0,0,0,0,0,0,0,0,0,0,0,0,0,0,0,0,0,0,0,0,0,0,0,0,0,0,0,0,0,0,0,0,0,0,0,0,0,0,0,0,0,0,0,0,0,-4.3241,-4.3242,0,-4.3323,-4.3323,-4.3324,-4.3194,-4.319,-4.3186,-4.3181,-4.3268,-4.3274,-4.328,0,0,0,0,0,0,0,0,0,0,0,0,0,-4.2975,-4.2981,-4.3241,-4.3242,-4.3243,-4.3322,-4.3324,-4.3325,-4.3195,-4.319,-4.3184,-4.3179,-4.3266,-4.3273,-4.3281,0,0,0,0,0,0,0,0,0,0,0,0,0,-4.3077,-4.2982,-4.3241,-4.3188,-4.3184,-4.3322,-4.3324,-4.3325,-4.3196,-4.319,-4.3183,-4.3177,-4.3263,-4.3272,-4.3282,-4.3477,0,0,-4.3312,-4.3316,0,0,0,0,0,0,0,0,-4.3072,-4.3087,-4.3195,-4.3192,-4.3188,-4.3241,-4.3261,-4.3376,-4.3198,-4.3192,-4.3181,-4.3173,-4.3265,-4.3274,-4.3304,-4.3481,-4.3484,-4.3313,-4.3318,-4.3323,-4.3325,0,0,0,0,0,0,0,-4.3065,-4.3083,-4.3273,-4.3196,-4.3192,-4.3161,-4.3168,-4.3282,-4.3265,-4.3192,-4.3183,-4.3194,-4.3261,-4.3295,-4.3305,-4.3486,-4.3312,-4.3321,-4.3327,-4.3331,-4.3826,-4.3833,0,0,0,0,0,0,-4.3064,-4.3078,-4.3271,-4.3276,-4.3112,-4.3171,-4.3179,-4.3231,-4.3263,-4.3262,-4.32,-4.3188,-4.3282,-4.3294,-4.3308,-4.3538,-4.3323,-4.3332,-4.3337,-4.3819,-4.3828,-4.3835,0,0,0,0,0,0,-4.3058,-4.3082,-4.3267,-4.3174,-4.3195,-4.3183,-4.3242,-4.3236,-4.3269,-4.3269,-4.3266,-4.3237,-4.3277,-4.3294,-4.3435,-4.3539,-4.3336,-4.3345,-4.381,-4.3821,-4.3831,-4.4,0,0,0,0,0,0,-4.3051,-4.3081,-4.3155,-4.3177,-4.3201,-4.3394,-4.3249,-4.3243,-4.3286,-4.3271,-4.3303,-4.3302,-4.3273,-4.3421,-4.3445,-4.3548,-4.3352,-4.3801,-4.3815,-4.3828,-4.3985,-4.4015,-4.4041,0,0,0,0,0,-4.3042,-4.3199,-4.3159,-4.3183,-4.3292,-4.34,-4.3414,-4.3376,-4.3295,-4.3369,-4.3369,-4.3301,-4.3523,-4.3437,-4.3462,-4.357,-4.3794,-4.3811,-4.3827,-4.3972,-4.4009,-4.404,0,0,0,0,0,0,-4.319,-4.3201,-4.3157,-4.3325,-4.3363,-4.3378,-4.347,-4.3416,-4.3478,-4.3462,-4.3413,-4.3421,-4.3573,-4.3585,-4.3489,-4.376,-4.3645,-4.3668,-4.3747,-4.3782,-4.3809,-4.3804,-4.3361,0,0,0,0,0,-4.3242,-4.3328,-4.3333,-4.3482,-4.3502,-4.3484,-4.3529,-4.3496,-4.3533,-4.3549,-4.3559,-4.3598,-4.3677,-4.373,-4.3802,-4.3985,-4.3991,-4.4072,-4.41,-4.4123,-4.4143,-4.4242,-4.4278,-4.389,-4.3889,-4.3889,0,0,-4.3351,-4.3368,-4.3425,-4.3512,-4.3537,-4.3627,-4.3498,-4.3599,-4.3666,-4.3565,-4.3699,-4.3708,-4.3748,-4.3912,-4.3984,-4.3927,-4.4252,-4.4144,-4.4162,-4.417,-4.4262,-4.4299,-4.4332,-4.3901,-4.3899,-4.3897,0,0,-4.3596,-4.3617,-4.3743,-4.377,-4.381,-4.3796,-4.3826,-4.385,-4.3851,-4.3985,-4.3911,-4.399,-4.4126,-4.4158,-4.4192,-4.4449,-4.4389,-4.4474,-4.4621,-4.4717,-4.4748,-4.4775,-4.4867,-4.4901,-4.4494,-4.4494,-4.4494,0,-4.3727,-4.386,-4.3815,-4.3921,-4.3962,-4.3873,-4.4,-4.4029,-4.4091,-4.4121,-4.4055,-4.4224,-4.4246,-4.4415,-4.4478,-4.4508,-4.4542,-4.447,-4.4747,-4.4773,-4.4798,-4.4885,-4.492,-4.4504,-4.4503,-4.4502,-4.4501,0,-4.4019,-4.4112,-4.4209,-4.427,-4.4321,-4.4438,-4.4411,-4.4468,-4.4431,-4.4425,-4.4562,-4.4584,-4.4659,-4.4697,-4.4662,-4.4862,-4.4825,-4.4754,-4.4638,-4.4846,-4.4927,-4.496,-4.4519,-4.4515,-4.4512,-4.4509,0,0,-4.4361,-4.4394,-4.4431,-4.4457,-4.4493,-4.4565,-4.4678,-4.475,-4.4801,-4.4846,-4.494,-4.5057,-4.4991,-4.503,-4.4998,-4.5082,-4.5285,-4.5001,-4.5001,-4.5054,-4.5508,-4.5562,-4.5602,-4.5245,-4.5251,-4.5256,-4.5505,0,-4.4605,-4.4799,-4.4761,-4.4951,-4.5037,-4.4953,-4.5051,-4.5085,-4.5081,-4.5154,-4.515,-4.5234,-4.5141,-4.5164,-4.5243,-4.5244,-4.5376,-4.5225,-4.5333,-4.5338,-4.5327,-4.5644,-4.5702,-4.5936,-4.5536,-4.5542,-4.5546,0,-4.4917,-4.4973,-4.5171,-4.5193,-4.5228,-4.5317,-4.538,-4.545,-4.5487,-4.5478,-4.5522,-4.5473,-4.5586,-4.5467,-4.5623,-4.5521,-4.5563,-4.557,-4.5578,-4.5587,-4.5455,-4.5664,-4.6009,-4.6045,-4.5595,-4.5591,-4.5588,0,-4.5148,-4.5272,-4.5407,-4.5432,-4.5461,-4.5526,-4.5541,-4.557,-4.5616,-4.5672,-4.5701,-4.577,-4.5808,-4.5862,-4.5834,-4.575,-4.5995,-4.5874,-4.5992,-4.5994,-4.6049,-4.6046,-4.6407,-4.6074,-4.6074,-4.6073,-4.6072,0,-4.5425,-4.555,-4.5511,-4.5594,-4.5731,-4.5686,-4.5824,-4.5829,-4.5856,-4.5939,-4.5871,-4.595,-4.5908,-4.5985,-4.5963,-4.6096,-4.6113,-4.611,-4.6103,-4.6117,-4.6118,-4.6145,-4.6129,-4.6082,-4.608,-4.6079,-4.6077,0,-4.5707,-4.5685,-4.5827,-4.5842,-4.5849,-4.595,-4.5963,-4.6041,-4.6032,-4.6138,-4.616,-4.6147,-4.6234,-4.621,-4.6305,-4.6291,-4.6458,-4.643,-4.6446,-4.644,-4.656,-4.655,-4.6953,-4.7004,-4.6637,-4.664,-4.6643,0,-4.5886,-4.598,-4.6005,-4.6055,-4.6076,-4.6158,-4.6204,-4.6163,-4.6214,-4.6262,-4.6335,-4.6415,-4.6477,-4.662,-4.662,-4.6692,-4.6666,-4.6802,-4.6676,-4.6687,-4.6669,-4.6664,-4.6674,-4.6827,-4.6832,-4.6835,-4.6838,0,-4.6207,-4.6191,-4.626,-4.6326,-4.6382,-4.6432,-4.6476,-4.6521,-4.6484,-4.6545,-4.6632,-4.6681,-4.6776,-4.6858,-4.6924,-4.694,-4.6884,-4.6877,-4.6908,-4.6924,-4.693,-4.693,-4.6516,-4.6868,-4.6865,-4.6863,-4.6861,-4.686,-4.6443,-4.6523,-4.6553,-4.6632,-4.666,-4.6702,-4.6776,-4.6776,-4.6848,-4.6922,-4.6893,-4.6994,-4.7028,-4.711,-4.7135,-4.7214,-4.7162,-4.7208,-4.7219,-4.7232,-4.7247,-4.6917,-4.7225,-4.7224,-4.7224,-4.7223,-4.7222,0,-4.6761,-4.6776,-4.6849,-4.6912,-4.6974,-4.6914,-4.6959,-4.7015,-4.7104,-4.714,-4.7202,-4.7303,-4.7381,-4.7386,-4.746,-4.7522,-4.7498,-4.7543,-4.7538,-4.7543,-4.7288,-4.7254,-4.7561,-4.7561,-4.7561,-4.7561,-4.756,-4.756,-4.6934,-4.7066,-4.7054,-4.7199,-4.7212,-4.731,-4.7341,-4.738,-4.7408,-4.7523,-4.7587,-4.7589,-4.7613,-4.7687,-4.7757,-4.7756,-4.7787,-4.7842,-4.7833,-4.7595,-4.7561,-4.7529,-4.7497,-4.7849,-4.7849,-4.8081,-4.8083,-4.8084]},{"header":{"parameterUnit":"m.s-1","parameterCategory":1,"la1":30.2991,"la2":30.254,"lo1":-89.0895,"lo2":-89.0444,"dy":0.0017,"dx":0.0017,"nx":28,"ny":28,"refTime":"2023-09-28T21:00:00:Z","depth":0,"parameterNumber":3,"parameterNumberName":"V-component_of_WINDS"},"data":[0,0,0,0,0,0,0,0,0,0,0,0,0,0,0,0,0,0,0,0,0,0,0,0,0,0,0,0,0,0,0,0,0,0,0,0,0,0,0,0,0,0,0,0,0,0,0,0,0,0,0,0,0,0,0,0,0,0,-2.5472,-2.5472,0,-2.5479,-2.548,-2.548,-2.5457,-2.5456,-2.5455,-2.5455,-2.5461,-2.5462,-2.5463,0,0,0,0,0,0,0,0,0,0,0,0,0,-2.5435,-2.5436,-2.5472,-2.5472,-2.5472,-2.5479,-2.548,-2.548,-2.5457,-2.5456,-2.5455,-2.5454,-2.5461,-2.5462,-2.5463,0,0,0,0,0,0,0,0,0,0,0,0,0,-2.5448,-2.5437,-2.5472,-2.5462,-2.5461,-2.5479,-2.548,-2.548,-2.5457,-2.5456,-2.5455,-2.5454,-2.5461,-2.5462,-2.5463,-2.5492,0,0,-2.5467,-2.5467,0,0,0,0,0,0,0,0,-2.5447,-2.5449,-2.5463,-2.5462,-2.5462,-2.5466,-2.5469,-2.5484,-2.5457,-2.5459,-2.5455,-2.5454,-2.5464,-2.5465,-2.5468,-2.5492,-2.5492,-2.5467,-2.5468,-2.5468,-2.5469,0,0,0,0,0,0,0,-2.5446,-2.5449,-2.5475,-2.5463,-2.5462,-2.5456,-2.5457,-2.5472,-2.5467,-2.5458,-2.5457,-2.5458,-2.5463,-2.5467,-2.5468,-2.5492,-2.5467,-2.5468,-2.5469,-2.5469,-2.5537,-2.5538,0,0,0,0,0,0,-2.5447,-2.5448,-2.5475,-2.5475,-2.5452,-2.5457,-2.5458,-2.5466,-2.5467,-2.5466,-2.5459,-2.5457,-2.5466,-2.5467,-2.5468,-2.55,-2.5468,-2.5469,-2.547,-2.5536,-2.5537,-2.5539,0,0,0,0,0,0,-2.5447,-2.545,-2.5474,-2.5461,-2.5464,-2.5459,-2.5468,-2.5466,-2.547,-2.5467,-2.5466,-2.5464,-2.5465,-2.5467,-2.5486,-2.55,-2.547,-2.5471,-2.5535,-2.5537,-2.5538,-2.5565,0,0,0,0,0,0,-2.5446,-2.545,-2.5461,-2.5462,-2.5465,-2.5492,-2.5469,-2.5467,-2.5473,-2.547,-2.5472,-2.5471,-2.5464,-2.5484,-2.5487,-2.5501,-2.5472,-2.5534,-2.5536,-2.5538,-2.5563,-2.5567,-2.5571,0,0,0,0,0,-2.5444,-2.5469,-2.5462,-2.5465,-2.5479,-2.5493,-2.5495,-2.5487,-2.5474,-2.5485,-2.5482,-2.5471,-2.5498,-2.5486,-2.5489,-2.5504,-2.5533,-2.5535,-2.5537,-2.5561,-2.5566,-2.5571,0,0,0,0,0,0,-2.547,-2.5469,-2.5461,-2.5486,-2.549,-2.5489,-2.5503,-2.5493,-2.55,-2.5498,-2.5487,-2.5488,-2.5508,-2.5508,-2.5495,-2.5531,-2.5513,-2.5516,-2.553,-2.5535,-2.5539,-2.5538,-2.5473,0,0,0,0,0,-2.5479,-2.5491,-2.5489,-2.5511,-2.5513,-2.5508,-2.5514,-2.5507,-2.551,-2.5512,-2.5511,-2.5514,-2.5523,-2.5529,-2.5537,-2.5563,-2.5562,-2.5574,-2.5579,-2.5582,-2.5584,-2.5596,-2.5601,-2.5546,-2.5546,-2.5546,0,0,-2.5496,-2.5497,-2.5505,-2.5516,-2.5518,-2.553,-2.5509,-2.5523,-2.5531,-2.5514,-2.5531,-2.553,-2.5533,-2.5555,-2.5564,-2.5555,-2.5599,-2.5585,-2.5588,-2.5588,-2.5599,-2.5604,-2.5609,-2.5548,-2.5548,-2.5548,0,0,-2.5534,-2.5537,-2.5555,-2.5557,-2.556,-2.5556,-2.5561,-2.5561,-2.556,-2.5577,-2.5564,-2.5573,-2.559,-2.5591,-2.5594,-2.5632,-2.562,-2.5635,-2.5656,-2.5667,-2.5672,-2.5675,-2.5687,-2.5691,-2.5637,-2.5637,-2.5637,0,-2.5556,-2.5574,-2.5565,-2.5579,-2.5584,-2.5568,-2.5586,-2.5588,-2.5594,-2.5597,-2.5587,-2.5606,-2.5607,-2.5628,-2.5637,-2.564,-2.5644,-2.5634,-2.5672,-2.5675,-2.5679,-2.569,-2.5694,-2.5639,-2.5639,-2.5639,-2.5638,0,-2.5599,-2.5612,-2.5626,-2.5631,-2.5637,-2.5653,-2.5646,-2.5653,-2.5645,-2.5642,-2.5659,-2.5659,-2.5666,-2.5671,-2.5665,-2.5691,-2.5685,-2.5674,-2.5656,-2.5686,-2.5696,-2.57,-2.5641,-2.5641,-2.564,-2.564,0,0,-2.5654,-2.5654,-2.5659,-2.566,-2.5662,-2.5671,-2.5685,-2.5692,-2.5697,-2.5702,-2.5712,-2.5726,-2.5715,-2.5719,-2.5712,-2.5722,-2.5749,-2.5709,-2.5709,-2.5715,-2.5776,-2.5783,-2.5788,-2.5742,-2.5743,-2.5744,-2.5775,0,-2.569,-2.5715,-2.5707,-2.5731,-2.5741,-2.5726,-2.5738,-2.574,-2.5737,-2.5745,-2.5741,-2.575,-2.5736,-2.5738,-2.5748,-2.5744,-2.5761,-2.5742,-2.5751,-2.5751,-2.5749,-2.5794,-2.5802,-2.5832,-2.5779,-2.578,-2.578,0,-2.5736,-2.5741,-2.5766,-2.5764,-2.5768,-2.578,-2.5784,-2.5792,-2.5794,-2.5791,-2.5794,-2.5785,-2.5797,-2.578,-2.5797,-2.5784,-2.5787,-2.5786,-2.5787,-2.5786,-2.5767,-2.5793,-2.5841,-2.5845,-2.5787,-2.5786,-2.5786,0,-2.5771,-2.5784,-2.5801,-2.5803,-2.5802,-2.5809,-2.5809,-2.5809,-2.5814,-2.5818,-2.582,-2.5826,-2.5829,-2.5833,-2.5825,-2.5813,-2.5842,-2.5825,-2.5839,-2.5839,-2.5845,-2.5844,-2.5892,-2.5849,-2.5849,-2.5849,-2.5849,0,-2.5811,-2.5827,-2.5816,-2.5826,-2.5843,-2.5833,-2.5849,-2.5848,-2.5848,-2.5856,-2.5844,-2.5852,-2.5842,-2.5849,-2.5843,-2.5856,-2.5858,-2.5855,-2.5853,-2.5855,-2.5856,-2.5857,-2.5854,-2.585,-2.585,-2.585,-2.5849,0,-2.5853,-2.5847,-2.5863,-2.586,-2.586,-2.5872,-2.5869,-2.5878,-2.5873,-2.5884,-2.5886,-2.588,-2.5887,-2.588,-2.5887,-2.5883,-2.59,-2.5896,-2.59,-2.5898,-2.5912,-2.591,-2.5962,-2.5967,-2.5922,-2.5922,-2.5923,0,-2.5878,-2.589,-2.5888,-2.5892,-2.5893,-2.5901,-2.5905,-2.5896,-2.59,-2.5901,-2.5909,-2.5916,-2.592,-2.5932,-2.5928,-2.5933,-2.5927,-2.5945,-2.5928,-2.593,-2.5926,-2.5925,-2.5925,-2.5948,-2.5949,-2.5949,-2.595,0,-2.5924,-2.5919,-2.5926,-2.593,-2.5935,-2.5938,-2.5941,-2.5945,-2.5935,-2.5941,-2.5948,-2.5951,-2.5958,-2.5964,-2.5967,-2.5966,-2.5956,-2.5955,-2.5958,-2.596,-2.5961,-2.5959,-2.5908,-2.5954,-2.5953,-2.5953,-2.5953,-2.5953,-2.5957,-2.5965,-2.5965,-2.5972,-2.5972,-2.5974,-2.5981,-2.5978,-2.5984,-2.5988,-2.5982,-2.5991,-2.599,-2.5994,-2.5994,-2.6,-2.5992,-2.5997,-2.5998,-2.5999,-2.6001,-2.5961,-2.6001,-2.6,-2.6,-2.6,-2.6,0,-2.6,-2.5998,-2.6005,-2.6008,-2.6013,-2.6003,-2.6004,-2.6009,-2.6016,-2.6017,-2.6021,-2.6028,-2.6034,-2.6029,-2.6034,-2.6039,-2.6034,-2.604,-2.6039,-2.6039,-2.6008,-2.6004,-2.6044,-2.6044,-2.6044,-2.6044,-2.6044,-2.6044,-2.6023,-2.6036,-2.6032,-2.6045,-2.6043,-2.6051,-2.6053,-2.6054,-2.6054,-2.6063,-2.6067,-2.6064,-2.6062,-2.6066,-2.607,-2.6069,-2.607,-2.6078,-2.6074,-2.6045,-2.6041,-2.6037,-2.6033,-2.6078,-2.6078,-2.6104,-2.6104,-2.6105]}]]